{"data":{"norad_id":61848,"intl_designator":"2024-202D","name":"STARLINK-32427","alt_names":[],"object_type":"PAYLOAD","status":"ACTIVE","operator":null,"country":"US","launch_date":"2024-11-07","launch_site_code":"AFETR","launch_vehicle":null,"mission":null,"orbit_class":"UNKNOWN","rcs_meters":null,"size_class":null,"mass_kg":null,"dimensions":null,"purposes":["comms"],"wikipedia_slug":null,"has_3d_model":false,"image_url":null,"decayed_at":null,"tle_current":{"epoch":"2026-05-25T01:06:32.827392Z","epoch_age_seconds":67059,"freshness":"FRESH","line1":"1 61848U 24202D   26145.04621328 -.00001283  00000+0 -37137-4 0  9991","line2":"2 61848  43.0015 155.6712 0001266 271.7601  88.3105 15.27567112 87139","mean_motion":15.27567112,"eccentricity":0.0001266,"inclination_deg":43.0015,"raan_deg":155.6712,"arg_perigee_deg":271.7601,"mean_anomaly_deg":88.3105,"bstar":-3.7137e-5,"rev_number":8713,"period_min":94.267544037044,"perigee_km":482.21905657396,"apogee_km":483.95631866487,"semimajor_km":6861.2246876194,"source":"CELESTRAK","updated_at":"2026-05-25T13:38:19.449936Z"}}}